Showing default

HULIANWANG DIGUI-57, 65114

Orbit data source: Space-Track

HULIANWANG DIGUI-57, 65114 is a payload satellite owned by Zhongguo Xingwang (CN) in LEO that was launched on Mon, 04 Aug 2025 UTC via a CHANG ZHENG 12 launch vehicle from the Wenchang Satellite Launch Center (WSC). Payload-class satellites include a variety of spacecraft equipped with specific instruments for various scientific and technological missions. These include communications satellites like Starlink; space stations such as the ISS; scientific satellites like the Hubble; Earth observation satellites from companies like Planet Labs, Umbra, and HawkEye 360; GPS; miniature CubeSats for education and research; and military/defense satellites.

Loading next visibility...
Identifier
65114, 2025-168J
Orbit
LEO
Country
Flag of CNCN / PRC
Related business
Manufacturer
YINNT
Mission
Operational Civil Communications
Bus & Motor
XINGWANG Y, Unknown motor
Mass
~800 kg wet, ~800 kg dry
Launch date (UTC)
2025-08-04 (11 months ago)
Launch vehicle
CHANG ZHENG 12
Launch site
Wenchang Satellite Launch Center (WSC)
Object type
Payload
Rocket body
Debris
Shape & HBR
Box + 2 Pan, 2.1 m
Radar Cross Section
5.935 m², Large (>1 m²)

Expand to show TLE details & history
Last TLE update: 11 hours ago

TLE from 11 hours ago
0 HULIANWANG DIGUI-57
1 65114U 25168J   26171.40249708 -.00000087  00000-0  79826-4 0  9992
2 65114  50.0027 313.8083 0009820 116.0965 244.0919 13.29324318 43132
Epoch: 2026-06-20T09:39Z
TLE epoch observation values (Epoch: 2026-06-20T09:39:35.747Z)
Latitude
-0°
Longitude
-99.70828°
Altitude
1,153.055 km
Speed
7.276 km/s
True Right ascension
20h 55m 13s
True Declination
0° 00' 00"
Sunlit
Object was in full shadow at epoch
Visualization orbit readout
Latitude
Unknown
Longitude
Unknown
Altitude
Unknown
Speed
Unknown
Apparent Right ascension
Unknown
Apparent Declination
Unknown
Sunlit
N/A
Visualization observer readout
Local Sidereal Time
07:23:41
Azimuth
Unknown
Elevation
Unknown
Doppler factor
Unknown
Orbital elements
Apogee altitude
1,157.411 km
Perigee altitude
1,142.625 km
Semi-major axis
7,528.155 km
Eccentricity
0.00098
Inclination
50.0027°
RAAN
313.8083°
Arg. of periapsis
116.0965°
True anomaly
243.99074°
Mean anomaly
244.0919°
Eccentric anomaly
244.04131°
Mean motion
3.32285 °/min
Orbital period
108.34 mins
BSTAR
0.000079826
Loading maneuver chart data...
Computing Atmospheric mass density...
Loading historical data...
Loading historical data...
Loading historical data...
Loading historical data...
Loading historical data...
Loading historical data...
Loading historical data...

Documentation

Showing up to 5 results
|